Location: Saint-Usage
(47.1052°N, 5.2587°E)
Time: 19:45:41
(UTC+01:00)

FALCONSAT 3 - Visible Passes

Search period start: 07 December 2021 00:00
Search period end: 17 December 2021 00:00
Orbit: 435 x 437 km, 35.4° (Epoch: 07 December)

Date Brightness Start Highest point End Pass type
(mag) Time Alt. Az. Time Alt. Az. Time Alt. Az.
07 Dec ? 05:46:57 12° S 05:46:57 12° S 05:48:21 10° SSE visible
08 Dec ? 06:40:09 10° SSW 06:41:01 11° S 06:41:51 10° S visible
09 Dec ? 05:57:43 11° S 05:57:43 11° S 05:58:44 10° SSE visible
